User: anonymous   Login
Location: Erlenbrunn
(49.1717°N, 7.6142°E)
Time: 16:47:46
(UTC+00:00)
Language:

H-2A R/B - Orbit

View from above orbital plane
View from above orbital plane
View from above satellite
View from above satellite

Ground track
Ground track

The orbit data is extracted from the following two-line orbital elements,

1 38341U 12025E   21058.84132077  .00000246  00000-0  36119-4 0  9993
2 38341  98.5221 236.8422 0056375 130.8776 229.7341 14.84176326475245
Epoch (UTC): 27 February 2021 20:11:30
Eccentricity: 0.0056375
inclination: 98.5221°
perigee height: 577 km
apogee height: 655 km
right ascension of ascending node: 236.8422°
argument of perigee: 130.8776°
revolutions per day: 14.84176326
mean anomaly at epoch: 229.7341°
orbit number at epoch: 47524

The dashed part of the orbit path shows where the satellite is in the earth's shadow,  

DLR